Year,Month,Day,Hour,Minute,Value (Times are PST for temperature in C)
2018,08,21,00,00,15.80
2018,08,21,00,01,15.80
2018,08,21,00,02,15.70
2018,08,21,00,03,15.70
2018,08,21,00,04,15.70
2018,08,21,00,05,15.70
2018,08,21,00,06,15.70
2018,08,21,00,07,15.70
2018,08,21,00,08,15.70
2018,08,21,00,09,15.70
2018,08,21,00,10,15.70
2018,08,21,00,11,15.70
2018,08,21,00,12,15.60
2018,08,21,00,13,15.60
2018,08,21,00,14,15.60
2018,08,21,00,15,15.60
2018,08,21,00,16,15.60
2018,08,21,00,17,15.60
2018,08,21,00,18,15.60
2018,08,21,00,19,15.50
2018,08,21,00,20,15.50
2018,08,21,00,21,15.50
2018,08,21,00,22,15.50
2018,08,21,00,23,15.50
2018,08,21,00,24,15.50
2018,08,21,00,25,15.40
2018,08,21,00,26,15.40
2018,08,21,00,27,15.40
2018,08,21,00,28,15.40
2018,08,21,00,29,15.40
2018,08,21,00,30,15.40
2018,08,21,00,31,15.40
2018,08,21,00,32,15.30
2018,08,21,00,33,15.30
2018,08,21,00,34,15.30
2018,08,21,00,35,15.30
2018,08,21,00,36,15.30
2018,08,21,00,37,15.30
2018,08,21,00,38,15.20
2018,08,21,00,39,15.20
2018,08,21,00,40,15.20
2018,08,21,00,41,15.20
2018,08,21,00,42,15.20
2018,08,21,00,43,15.20
2018,08,21,00,44,15.20
2018,08,21,00,45,15.10
2018,08,21,00,46,15.10
2018,08,21,00,47,15.10
2018,08,21,00,48,15.10
2018,08,21,00,49,15.10
2018,08,21,00,50,15.10
2018,08,21,00,51,15.10
2018,08,21,00,52,15.10
2018,08,21,00,53,15.10
2018,08,21,00,54,15.10
2018,08,21,00,55,15.00
2018,08,21,00,56,15.00
2018,08,21,00,57,15.00
2018,08,21,00,58,15.00
2018,08,21,00,59,15.00
2018,08,21,01,00,14.90
2018,08,21,01,01,14.90
2018,08,21,01,02,14.90
2018,08,21,01,03,14.90
2018,08,21,01,04,14.90
2018,08,21,01,05,14.90
2018,08,21,01,06,14.90
2018,08,21,01,07,14.90
2018,08,21,01,08,14.80
2018,08,21,01,09,14.80
2018,08,21,01,10,14.80
2018,08,21,01,11,14.80
2018,08,21,01,12,14.80
2018,08,21,01,13,14.80
2018,08,21,01,14,14.70
2018,08,21,01,15,14.70
2018,08,21,01,16,14.70
2018,08,21,01,17,14.70
2018,08,21,01,18,14.70
2018,08,21,01,19,14.70
2018,08,21,01,20,14.70
2018,08,21,01,21,14.60
2018,08,21,01,22,14.60
2018,08,21,01,23,14.60
2018,08,21,01,24,14.60
2018,08,21,01,25,14.60
2018,08,21,01,26,14.60
2018,08,21,01,27,14.60
2018,08,21,01,28,14.60
2018,08,21,01,29,14.60
2018,08,21,01,30,14.50
2018,08,21,01,31,14.50
2018,08,21,01,32,14.50
2018,08,21,01,33,14.50
2018,08,21,01,34,14.50
2018,08,21,01,35,14.50
2018,08,21,01,36,14.50
2018,08,21,01,37,14.40
2018,08,21,01,38,14.40
2018,08,21,01,39,14.40
2018,08,21,01,40,14.40
2018,08,21,01,41,14.40
2018,08,21,01,42,14.40
2018,08,21,01,43,14.40
2018,08,21,01,44,14.40
2018,08,21,01,45,14.40
2018,08,21,01,46,14.40
2018,08,21,01,47,14.40
2018,08,21,01,48,14.30
2018,08,21,01,49,14.30
2018,08,21,01,50,14.30
2018,08,21,01,51,14.30
2018,08,21,01,52,14.30
2018,08,21,01,53,14.30
2018,08,21,01,54,14.30
2018,08,21,01,55,14.30
2018,08,21,01,56,14.30
2018,08,21,01,57,14.20
2018,08,21,01,58,14.20
2018,08,21,01,59,14.20
2018,08,21,02,00,14.20
2018,08,21,02,01,14.20
2018,08,21,02,02,14.20
2018,08,21,02,03,14.20
2018,08,21,02,04,14.20
2018,08,21,02,05,14.10
2018,08,21,02,06,14.10
2018,08,21,02,07,14.10
2018,08,21,02,08,14.10
2018,08,21,02,09,14.10
2018,08,21,02,10,14.10
2018,08,21,02,11,14.00
2018,08,21,02,12,14.00
2018,08,21,02,13,14.00
2018,08,21,02,14,14.00
2018,08,21,02,15,14.00
2018,08,21,02,16,14.00
2018,08,21,02,17,13.90
2018,08,21,02,18,13.90
2018,08,21,02,19,13.90
2018,08,21,02,20,13.90
2018,08,21,02,21,13.90
2018,08,21,02,22,13.90
2018,08,21,02,23,13.90
2018,08,21,02,24,13.90
2018,08,21,02,25,13.90
2018,08,21,02,26,13.90
2018,08,21,02,27,13.80
2018,08,21,02,28,13.80
2018,08,21,02,29,13.80
2018,08,21,02,30,13.80
2018,08,21,02,31,13.80
2018,08,21,02,32,13.80
2018,08,21,02,33,13.80
2018,08,21,02,34,13.70
2018,08,21,02,35,13.70
2018,08,21,02,36,13.70
2018,08,21,02,37,13.70
2018,08,21,02,38,13.70
2018,08,21,02,39,13.70
2018,08,21,02,40,13.70
2018,08,21,02,41,13.70
2018,08,21,02,42,13.70
2018,08,21,02,43,13.60
2018,08,21,02,44,13.60
2018,08,21,02,45,13.60
2018,08,21,02,46,13.60
2018,08,21,02,47,13.60
2018,08,21,02,48,13.60
2018,08,21,02,49,13.60
2018,08,21,02,50,13.60
2018,08,21,02,51,13.60
2018,08,21,02,52,13.60
2018,08,21,02,53,13.60
2018,08,21,02,54,13.60
2018,08,21,02,55,13.60
2018,08,21,02,56,13.60
2018,08,21,02,57,13.60
2018,08,21,02,58,13.60
2018,08,21,02,59,13.60
2018,08,21,03,00,13.60
2018,08,21,03,01,13.60
2018,08,21,03,02,13.50
2018,08,21,03,03,13.50
2018,08,21,03,04,13.50
2018,08,21,03,05,13.50
2018,08,21,03,06,13.50
2018,08,21,03,07,13.50
2018,08,21,03,08,13.50
2018,08,21,03,09,13.50
2018,08,21,03,10,13.50
2018,08,21,03,11,13.50
2018,08,21,03,12,13.50
2018,08,21,03,13,13.50
2018,08,21,03,14,13.50
2018,08,21,03,15,13.50
2018,08,21,03,16,13.40
2018,08,21,03,17,13.40
2018,08,21,03,18,13.40
2018,08,21,03,19,13.40
2018,08,21,03,20,13.40
2018,08,21,03,21,13.40
2018,08,21,03,22,13.30
2018,08,21,03,23,13.30
2018,08,21,03,24,13.30
2018,08,21,03,25,13.30
2018,08,21,03,26,13.30
2018,08,21,03,27,13.30
2018,08,21,03,28,13.30
2018,08,21,03,29,13.30
2018,08,21,03,30,13.30
2018,08,21,03,31,13.20
2018,08,21,03,32,13.20
2018,08,21,03,33,13.20
2018,08,21,03,34,13.20
2018,08,21,03,35,13.20
2018,08,21,03,36,13.20
2018,08,21,03,37,13.20
2018,08,21,03,38,13.20
2018,08,21,03,39,13.20
2018,08,21,03,40,13.10
2018,08,21,03,41,13.10
2018,08,21,03,42,13.10
2018,08,21,03,43,13.10
2018,08,21,03,44,13.10
2018,08,21,03,45,13.10
2018,08,21,03,46,13.00
2018,08,21,03,47,13.00
2018,08,21,03,48,13.00
2018,08,21,03,49,13.00
2018,08,21,03,50,12.90
2018,08,21,03,51,12.90
2018,08,21,03,52,12.90
2018,08,21,03,53,12.90
2018,08,21,03,54,12.90
2018,08,21,03,55,12.90
2018,08,21,03,56,12.90
2018,08,21,03,57,12.90
2018,08,21,03,58,12.90
2018,08,21,03,59,12.90
2018,08,21,04,00,12.90
2018,08,21,04,01,12.90
2018,08,21,04,02,12.80
2018,08,21,04,03,12.80
2018,08,21,04,04,12.80
2018,08,21,04,05,12.80
2018,08,21,04,06,12.80
2018,08,21,04,07,12.80
2018,08,21,04,08,12.80
2018,08,21,04,09,12.80
2018,08,21,04,10,12.80
2018,08,21,04,11,12.80
2018,08,21,04,12,12.80
2018,08,21,04,13,12.80
2018,08,21,04,14,12.80
2018,08,21,04,15,12.80
2018,08,21,04,16,12.80
2018,08,21,04,17,12.70
2018,08,21,04,18,12.70
2018,08,21,04,19,12.70
2018,08,21,04,20,12.70
2018,08,21,04,21,12.70
2018,08,21,04,22,12.70
2018,08,21,04,23,12.70
2018,08,21,04,24,12.70
2018,08,21,04,25,12.70
2018,08,21,04,26,12.70
2018,08,21,04,27,12.70
2018,08,21,04,28,12.70
2018,08,21,04,29,12.70
2018,08,21,04,30,12.60
2018,08,21,04,31,12.60
2018,08,21,04,32,12.60
2018,08,21,04,33,12.60
2018,08,21,04,34,12.60
2018,08,21,04,35,12.60
2018,08,21,04,36,12.60
2018,08,21,04,37,12.60
2018,08,21,04,38,12.60
2018,08,21,04,39,12.60
2018,08,21,04,40,12.60
2018,08,21,04,41,12.60
2018,08,21,04,42,12.60
2018,08,21,04,43,12.60
2018,08,21,04,44,12.60
2018,08,21,04,45,12.60
2018,08,21,04,46,12.60
2018,08,21,04,47,12.60
2018,08,21,04,48,12.60
2018,08,21,04,49,12.60
2018,08,21,04,50,12.60
2018,08,21,04,51,12.60
2018,08,21,04,52,12.60
2018,08,21,04,53,12.60
2018,08,21,04,54,12.60
2018,08,21,04,55,12.60
2018,08,21,04,56,12.50
2018,08,21,04,57,12.50
2018,08,21,04,58,12.50
2018,08,21,04,59,12.50
2018,08,21,05,00,12.50
2018,08,21,05,01,12.40
2018,08,21,05,02,12.40
2018,08,21,05,03,12.40
2018,08,21,05,04,12.40
2018,08,21,05,05,12.40
2018,08,21,05,06,12.40
2018,08,21,05,07,12.40
2018,08,21,05,08,12.30
2018,08,21,05,09,12.30
2018,08,21,05,10,12.30
2018,08,21,05,11,12.30
2018,08,21,05,12,12.30
2018,08,21,05,13,12.30
2018,08,21,05,14,12.30
2018,08,21,05,15,12.20
2018,08,21,05,16,12.20
2018,08,21,05,17,12.20
2018,08,21,05,18,12.20
2018,08,21,05,19,12.20
2018,08,21,05,20,12.20
2018,08,21,05,21,12.20
2018,08,21,05,22,12.20
2018,08,21,05,23,12.20
2018,08,21,05,24,12.20
2018,08,21,05,25,12.10
2018,08,21,05,26,12.10
2018,08,21,05,27,12.10
2018,08,21,05,28,12.10
2018,08,21,05,29,12.10
2018,08,21,05,30,12.10
2018,08,21,05,31,12.10
2018,08,21,05,32,12.10
2018,08,21,05,33,12.00
2018,08,21,05,34,12.00
2018,08,21,05,35,12.00
2018,08,21,05,36,12.00
2018,08,21,05,37,11.90
2018,08,21,05,38,11.90
2018,08,21,05,39,11.90
2018,08,21,05,40,11.90
2018,08,21,05,41,11.90
2018,08,21,05,42,11.90
2018,08,21,05,43,11.80
2018,08,21,05,44,11.80
2018,08,21,05,45,11.80
2018,08,21,05,46,11.80
2018,08,21,05,47,11.80
2018,08,21,05,48,11.80
2018,08,21,05,49,11.80
2018,08,21,05,50,11.80
2018,08,21,05,51,11.80
2018,08,21,05,52,11.80
2018,08,21,05,53,11.80
2018,08,21,05,54,11.80
2018,08,21,05,55,11.80
2018,08,21,05,56,11.80
2018,08,21,05,57,11.80
2018,08,21,05,58,11.70
2018,08,21,05,59,11.70
2018,08,21,06,00,11.70
2018,08,21,06,01,11.70
2018,08,21,06,02,11.70
2018,08,21,06,03,11.70
2018,08,21,06,04,11.70
2018,08,21,06,05,11.70
2018,08,21,06,06,11.70
2018,08,21,06,07,11.70
2018,08,21,06,08,11.70
2018,08,21,06,09,11.70
2018,08,21,06,10,11.70
2018,08,21,06,11,11.70
2018,08,21,06,12,11.70
2018,08,21,06,13,11.70
2018,08,21,06,14,11.70
2018,08,21,06,15,11.70
2018,08,21,06,16,11.70
2018,08,21,06,17,11.70
2018,08,21,06,18,11.70
2018,08,21,06,19,11.70
2018,08,21,06,20,11.70
2018,08,21,06,21,11.70
2018,08,21,06,22,11.60
2018,08,21,06,23,11.60
2018,08,21,06,24,11.60
2018,08,21,06,25,11.60
2018,08,21,06,26,11.60
2018,08,21,06,27,11.60
2018,08,21,06,28,11.60
2018,08,21,06,29,11.60
2018,08,21,06,30,11.60
2018,08,21,06,31,11.60
2018,08,21,06,32,11.60
2018,08,21,06,33,11.60
2018,08,21,06,34,11.60
2018,08,21,06,35,11.60
2018,08,21,06,36,11.60
2018,08,21,06,37,11.60
2018,08,21,06,38,11.60
2018,08,21,06,39,11.60
2018,08,21,06,40,11.60
2018,08,21,06,41,11.60
2018,08,21,06,42,11.60
2018,08,21,06,43,11.60
2018,08,21,06,44,11.60
2018,08,21,06,45,11.60
2018,08,21,06,46,11.60
2018,08,21,06,47,11.60
2018,08,21,06,48,11.60
2018,08,21,06,49,11.60
2018,08,21,06,50,11.60
2018,08,21,06,51,11.60
2018,08,21,06,52,11.60
2018,08,21,06,53,11.60
2018,08,21,06,54,11.60
2018,08,21,06,55,11.60
2018,08,21,06,56,11.60
2018,08,21,06,57,11.60
2018,08,21,06,58,11.60
2018,08,21,06,59,11.60
2018,08,21,07,00,11.60
2018,08,21,07,01,11.60
2018,08,21,07,02,11.50
2018,08,21,07,03,11.50
2018,08,21,07,04,11.50
2018,08,21,07,05,11.50
2018,08,21,07,06,11.60
2018,08,21,07,07,11.50
2018,08,21,07,08,11.60
2018,08,21,07,09,11.60
2018,08,21,07,10,11.60
2018,08,21,07,11,11.60
2018,08,21,07,12,11.60
2018,08,21,07,13,11.60
2018,08,21,07,14,11.60
2018,08,21,07,15,11.60
2018,08,21,07,16,11.60
2018,08,21,07,17,11.60
2018,08,21,07,18,11.60
2018,08,21,07,19,11.70
2018,08,21,07,20,11.70
2018,08,21,07,21,11.70
2018,08,21,07,22,11.70
2018,08,21,07,23,11.70
2018,08,21,07,24,11.70
2018,08,21,07,25,11.70
2018,08,21,07,26,11.70
2018,08,21,07,27,11.70
2018,08,21,07,28,11.80
2018,08,21,07,29,11.80
2018,08,21,07,30,11.80
2018,08,21,07,31,11.80
2018,08,21,07,32,11.80
2018,08,21,07,33,11.80
2018,08,21,07,34,11.90
2018,08,21,07,35,11.90
2018,08,21,07,36,11.90
2018,08,21,07,37,11.90
2018,08,21,07,38,12.00
2018,08,21,07,39,12.00
2018,08,21,07,40,12.10
2018,08,21,07,41,12.10
2018,08,21,07,42,12.10
2018,08,21,07,43,12.10
2018,08,21,07,44,12.20
2018,08,21,07,45,12.20
2018,08,21,07,46,12.20
2018,08,21,07,47,12.20
2018,08,21,07,48,12.30
2018,08,21,07,49,12.30
2018,08,21,07,50,12.30
2018,08,21,07,51,12.40
2018,08,21,07,52,12.40
2018,08,21,07,53,12.40
2018,08,21,07,54,12.50
2018,08,21,07,55,12.50
2018,08,21,07,56,12.60
2018,08,21,07,57,12.60
2018,08,21,07,58,12.60
2018,08,21,07,59,12.70
2018,08,21,08,00,12.70
2018,08,21,08,01,12.80
2018,08,21,08,02,12.80
2018,08,21,08,03,12.80
2018,08,21,08,04,12.90
2018,08,21,08,05,12.90
2018,08,21,08,06,13.00
2018,08,21,08,07,13.10
2018,08,21,08,08,13.10
2018,08,21,08,09,13.20
2018,08,21,08,10,13.30
2018,08,21,08,11,13.30
2018,08,21,08,12,13.40
2018,08,21,08,13,13.40
2018,08,21,08,14,13.50
2018,08,21,08,15,13.60
2018,08,21,08,16,13.60
2018,08,21,08,17,13.70
2018,08,21,08,18,13.70
2018,08,21,08,19,13.80
2018,08,21,08,20,13.80
2018,08,21,08,21,13.90
2018,08,21,08,22,14.00
2018,08,21,08,23,14.00
2018,08,21,08,24,14.10
2018,08,21,08,25,14.20
2018,08,21,08,26,14.20
2018,08,21,08,27,14.30
2018,08,21,08,28,14.30
2018,08,21,08,29,14.40
2018,08,21,08,30,14.40
2018,08,21,08,31,14.50
2018,08,21,08,32,14.60
2018,08,21,08,33,14.70
2018,08,21,08,34,14.70
2018,08,21,08,35,14.80
2018,08,21,08,36,14.80
2018,08,21,08,37,14.90
2018,08,21,08,38,15.00
2018,08,21,08,39,15.10
2018,08,21,08,40,15.10
2018,08,21,08,41,15.20
2018,08,21,08,42,15.20
2018,08,21,08,43,15.30
2018,08,21,08,44,15.30
2018,08,21,08,45,15.40
2018,08,21,08,46,15.40
2018,08,21,08,47,15.50
2018,08,21,08,48,15.60
2018,08,21,08,49,15.60
2018,08,21,08,50,15.70
2018,08,21,08,51,15.70
2018,08,21,08,52,15.80
2018,08,21,08,53,15.90
2018,08,21,08,54,15.90
2018,08,21,08,55,16.00
2018,08,21,08,56,16.10
2018,08,21,08,57,16.10
2018,08,21,08,58,16.20
2018,08,21,08,59,16.30
2018,08,21,09,00,16.40
2018,08,21,09,01,16.50
2018,08,21,09,02,16.60
2018,08,21,09,03,16.70
2018,08,21,09,04,16.80
2018,08,21,09,05,16.90
2018,08,21,09,06,16.90
2018,08,21,09,07,17.00
2018,08,21,09,08,17.10
2018,08,21,09,09,17.20
2018,08,21,09,10,17.30
2018,08,21,09,11,17.40
2018,08,21,09,12,17.40
2018,08,21,09,13,17.50
2018,08,21,09,14,17.60
2018,08,21,09,15,17.70
2018,08,21,09,16,17.80
2018,08,21,09,17,17.80
2018,08,21,09,18,17.90
2018,08,21,09,19,18.00
2018,08,21,09,20,18.10
2018,08,21,09,21,18.20
2018,08,21,09,22,18.30
2018,08,21,09,23,18.40
2018,08,21,09,24,18.50
2018,08,21,09,25,18.60
2018,08,21,09,26,18.70
2018,08,21,09,27,18.80
2018,08,21,09,28,18.90
2018,08,21,09,29,19.10
2018,08,21,09,30,19.20
2018,08,21,09,31,19.30
2018,08,21,09,32,19.40
2018,08,21,09,33,19.50
2018,08,21,09,34,19.60
2018,08,21,09,35,19.70
2018,08,21,09,36,19.80
2018,08,21,09,37,19.90
2018,08,21,09,38,20.10
2018,08,21,09,39,20.20
2018,08,21,09,40,20.30
2018,08,21,09,41,20.40
2018,08,21,09,42,20.50
2018,08,21,09,43,20.70
2018,08,21,09,44,20.90
2018,08,21,09,45,21.00
2018,08,21,09,46,21.20
2018,08,21,09,47,21.30
2018,08,21,09,48,21.50
2018,08,21,09,49,21.60
2018,08,21,09,50,21.80
2018,08,21,09,51,22.00
2018,08,21,09,52,22.10
2018,08,21,09,53,22.30
2018,08,21,09,54,22.40
2018,08,21,09,55,22.60
2018,08,21,09,56,22.70
2018,08,21,09,57,22.80
2018,08,21,09,58,22.90
2018,08,21,09,59,23.00
2018,08,21,10,00,23.10
2018,08,21,10,01,23.20
2018,08,21,10,02,23.30
2018,08,21,10,03,23.40
2018,08,21,10,04,23.50
2018,08,21,10,05,23.60
2018,08,21,10,06,23.60
2018,08,21,10,07,23.70
2018,08,21,10,08,23.80
2018,08,21,10,09,23.80
2018,08,21,10,10,23.90
2018,08,21,10,11,24.00
2018,08,21,10,12,24.10
2018,08,21,10,13,24.10
2018,08,21,10,14,24.20
2018,08,21,10,15,24.20
2018,08,21,10,16,24.30
2018,08,21,10,17,24.30
2018,08,21,10,18,24.30
2018,08,21,10,19,24.30
2018,08,21,10,20,24.30
2018,08,21,10,21,24.30
2018,08,21,10,22,24.40
2018,08,21,10,23,24.40
2018,08,21,10,24,24.40
2018,08,21,10,25,24.50
2018,08,21,10,26,24.50
2018,08,21,10,27,24.60
2018,08,21,10,28,24.70
2018,08,21,10,29,24.70
2018,08,21,10,30,24.80
2018,08,21,10,31,24.80
2018,08,21,10,32,24.90
2018,08,21,10,33,25.00
2018,08,21,10,34,25.00
2018,08,21,10,35,25.10
2018,08,21,10,36,25.20
2018,08,21,10,37,25.20
2018,08,21,10,38,25.30
2018,08,21,10,39,25.30
2018,08,21,10,40,25.40
2018,08,21,10,41,25.50
2018,08,21,10,42,25.60
2018,08,21,10,43,25.70
2018,08,21,10,44,25.70
2018,08,21,10,45,25.80
2018,08,21,10,46,25.90
2018,08,21,10,47,25.90
2018,08,21,10,48,26.00
2018,08,21,10,49,26.10
2018,08,21,10,50,26.10
2018,08,21,10,51,26.10
2018,08,21,10,52,26.10
2018,08,21,10,53,26.10
2018,08,21,10,54,26.20
2018,08,21,10,55,26.20
2018,08,21,10,56,26.20
2018,08,21,10,57,26.20
2018,08,21,10,58,26.20
2018,08,21,10,59,26.20
2018,08,21,11,00,26.30
2018,08,21,11,01,26.30
2018,08,21,11,02,26.40
2018,08,21,11,03,26.40
2018,08,21,11,04,26.50
2018,08,21,11,05,26.50
2018,08,21,11,06,26.60
2018,08,21,11,07,26.60
2018,08,21,11,08,26.60
2018,08,21,11,09,26.60
2018,08,21,11,10,26.60
2018,08,21,11,11,26.60
2018,08,21,11,12,26.60
2018,08,21,11,13,26.60
2018,08,21,11,14,26.60
2018,08,21,11,15,26.70
2018,08,21,11,16,26.70
2018,08,21,11,17,26.70
2018,08,21,11,18,26.60
2018,08,21,11,19,26.60
2018,08,21,11,20,26.50
2018,08,21,11,21,26.40
2018,08,21,11,22,26.30
2018,08,21,11,23,26.30
2018,08,21,11,24,26.20
2018,08,21,11,25,26.10
2018,08,21,11,26,26.10
2018,08,21,11,27,26.00
2018,08,21,11,28,25.90
2018,08,21,11,29,25.90
2018,08,21,11,30,25.80
2018,08,21,11,31,25.80
2018,08,21,11,32,25.80
2018,08,21,11,33,25.80
2018,08,21,11,34,25.80
2018,08,21,11,35,25.80
2018,08,21,11,36,25.90
2018,08,21,11,37,25.90
2018,08,21,11,38,26.00
2018,08,21,11,39,26.00
2018,08,21,11,40,26.00
2018,08,21,11,41,26.00
2018,08,21,11,42,26.00
2018,08,21,11,43,25.90
2018,08,21,11,44,25.90
2018,08,21,11,45,25.80
2018,08,21,11,46,25.80
2018,08,21,11,47,25.70
2018,08,21,11,48,25.70
2018,08,21,11,49,25.70
2018,08,21,11,50,25.70
2018,08,21,11,51,25.70
2018,08,21,11,52,25.70
2018,08,21,11,53,25.70
2018,08,21,11,54,25.70
2018,08,21,11,55,25.80
2018,08,21,11,56,25.80
2018,08,21,11,57,25.80
2018,08,21,11,58,25.80
2018,08,21,11,59,25.80
2018,08,21,12,00,25.70
2018,08,21,12,01,25.70
2018,08,21,12,02,25.70
2018,08,21,12,03,25.80
2018,08,21,12,04,25.80
2018,08,21,12,05,25.80
2018,08,21,12,06,25.80
2018,08,21,12,07,25.80
2018,08,21,12,08,25.90
2018,08,21,12,09,25.90
2018,08,21,12,10,26.00
2018,08,21,12,11,26.10
2018,08,21,12,12,26.10
2018,08,21,12,13,26.10
2018,08,21,12,14,26.20
2018,08,21,12,15,26.20
2018,08,21,12,16,26.30
2018,08,21,12,17,26.30
2018,08,21,12,18,26.40
2018,08,21,12,19,26.40
2018,08,21,12,20,26.40
2018,08,21,12,21,26.50
2018,08,21,12,22,26.50
2018,08,21,12,23,26.60
2018,08,21,12,24,26.60
2018,08,21,12,25,26.70
2018,08,21,12,26,26.60
2018,08,21,12,27,26.70
2018,08,21,12,28,26.70
2018,08,21,12,29,26.70
2018,08,21,12,30,26.70
2018,08,21,12,31,26.80
2018,08,21,12,32,26.80
2018,08,21,12,33,26.90
2018,08,21,12,34,27.00
2018,08,21,12,35,27.00
2018,08,21,12,36,27.10
2018,08,21,12,37,27.10
2018,08,21,12,38,27.10
2018,08,21,12,39,27.20
2018,08,21,12,40,27.20
2018,08,21,12,41,27.20
2018,08,21,12,42,27.30
2018,08,21,12,43,27.40
2018,08,21,12,44,27.50
2018,08,21,12,45,27.60
2018,08,21,12,46,27.70
2018,08,21,12,47,27.80
2018,08,21,12,48,27.90
2018,08,21,12,49,28.00
2018,08,21,12,50,28.00
2018,08,21,12,51,28.10
2018,08,21,12,52,28.20
2018,08,21,12,53,28.20
2018,08,21,12,54,28.20
2018,08,21,12,55,28.20
2018,08,21,12,56,28.20
2018,08,21,12,57,28.30
2018,08,21,12,58,28.30
2018,08,21,12,59,28.40
2018,08,21,13,00,28.40
2018,08,21,13,01,28.40
2018,08,21,13,02,28.40
2018,08,21,13,03,28.40
2018,08,21,13,04,28.30
2018,08,21,13,05,28.20
2018,08,21,13,06,28.10
2018,08,21,13,07,28.10
2018,08,21,13,08,28.10
2018,08,21,13,09,28.10
2018,08,21,13,10,28.10
2018,08,21,13,11,28.20
2018,08,21,13,12,28.30
2018,08,21,13,13,28.30
2018,08,21,13,14,28.40
2018,08,21,13,15,28.50
2018,08,21,13,16,28.50
2018,08,21,13,17,28.50
2018,08,21,13,18,28.60
2018,08,21,13,19,28.60
2018,08,21,13,20,28.70
2018,08,21,13,21,28.80
2018,08,21,13,22,28.90
2018,08,21,13,23,29.00
2018,08,21,13,24,29.10
2018,08,21,13,25,29.20
2018,08,21,13,26,29.20
2018,08,21,13,27,29.30
2018,08,21,13,28,29.30
2018,08,21,13,29,29.30
2018,08,21,13,30,29.30
2018,08,21,13,31,29.30
2018,08,21,13,32,29.30
2018,08,21,13,33,29.40
2018,08,21,13,34,29.40
2018,08,21,13,35,29.40
2018,08,21,13,36,29.40
2018,08,21,13,37,29.40
2018,08,21,13,38,29.40
2018,08,21,13,39,29.50
2018,08,21,13,40,29.50
2018,08,21,13,41,29.50
2018,08,21,13,42,29.50
2018,08,21,13,43,29.50
2018,08,21,13,44,29.50
2018,08,21,13,45,29.50
2018,08,21,13,46,29.60
2018,08,21,13,47,29.60
2018,08,21,13,48,29.70
2018,08,21,13,49,29.70
2018,08,21,13,50,29.70
2018,08,21,13,51,29.60
2018,08,21,13,52,29.60
2018,08,21,13,53,29.50
2018,08,21,13,54,29.40
2018,08,21,13,55,29.30
2018,08,21,13,56,29.30
2018,08,21,13,57,29.30
2018,08,21,13,58,29.30
2018,08,21,13,59,29.30
2018,08,21,14,00,29.30
2018,08,21,14,01,29.30
2018,08,21,14,02,29.40
2018,08,21,14,03,29.40
2018,08,21,14,04,29.40
2018,08,21,14,05,29.40
2018,08,21,14,06,29.30
2018,08,21,14,07,29.30
2018,08,21,14,08,29.30
2018,08,21,14,09,29.30
2018,08,21,14,10,29.30
2018,08,21,14,11,29.40
2018,08,21,14,12,29.40
2018,08,21,14,13,29.40
2018,08,21,14,14,29.40
2018,08,21,14,15,29.40
2018,08,21,14,16,29.40
2018,08,21,14,17,29.40
2018,08,21,14,18,29.30
2018,08,21,14,19,29.30
2018,08,21,14,20,29.30
2018,08,21,14,21,29.40
2018,08,21,14,22,29.50
2018,08,21,14,23,29.60
2018,08,21,14,24,29.60
2018,08,21,14,25,29.50
2018,08,21,14,26,29.50
2018,08,21,14,27,29.50
2018,08,21,14,28,29.50
2018,08,21,14,29,29.50
2018,08,21,14,30,29.50
2018,08,21,14,31,29.50
2018,08,21,14,32,29.60
2018,08,21,14,33,29.70
2018,08,21,14,34,29.70
2018,08,21,14,35,29.70
2018,08,21,14,36,29.70
2018,08,21,14,37,29.70
2018,08,21,14,38,29.70
2018,08,21,14,39,29.80
2018,08,21,14,40,29.80
2018,08,21,14,41,29.80
2018,08,21,14,42,29.90
2018,08,21,14,43,29.90
2018,08,21,14,44,30.00
2018,08,21,14,45,29.90
2018,08,21,14,46,30.00
2018,08,21,14,47,29.90
2018,08,21,14,48,29.90
2018,08,21,14,49,30.00
2018,08,21,14,50,30.00
2018,08,21,14,51,30.00
2018,08,21,14,52,30.10
2018,08,21,14,53,30.10
2018,08,21,14,54,30.10
2018,08,21,14,55,30.20
2018,08,21,14,56,30.20
2018,08,21,14,57,30.10
2018,08,21,14,58,30.10
2018,08,21,14,59,30.10
2018,08,21,15,00,30.10
2018,08,21,15,01,30.20
2018,08,21,15,02,30.20
2018,08,21,15,03,30.20
2018,08,21,15,04,30.20
2018,08,21,15,05,30.20
2018,08,21,15,06,30.20
2018,08,21,15,07,30.10
2018,08,21,15,08,30.00
2018,08,21,15,09,29.80
2018,08,21,15,10,29.80
2018,08,21,15,11,29.70
2018,08,21,15,12,29.70
2018,08,21,15,13,29.60
2018,08,21,15,14,29.50
2018,08,21,15,15,29.60
2018,08,21,15,16,29.60
2018,08,21,15,17,29.60
2018,08,21,15,18,29.70
2018,08,21,15,19,29.80
2018,08,21,15,20,29.80
2018,08,21,15,21,29.90
2018,08,21,15,22,30.00
2018,08,21,15,23,30.10
2018,08,21,15,24,30.10
2018,08,21,15,25,30.20
2018,08,21,15,26,30.20
2018,08,21,15,27,30.20
2018,08,21,15,28,30.20
2018,08,21,15,29,30.20
2018,08,21,15,30,30.20
2018,08,21,15,31,30.20
2018,08,21,15,32,30.20
2018,08,21,15,33,30.20
2018,08,21,15,34,30.20
2018,08,21,15,35,30.20
2018,08,21,15,36,30.20
2018,08,21,15,37,30.30
2018,08,21,15,38,30.30
2018,08,21,15,39,30.30
2018,08,21,15,40,30.40
2018,08,21,15,41,30.40
2018,08,21,15,42,30.50
2018,08,21,15,43,30.60
2018,08,21,15,44,30.70
2018,08,21,15,45,30.70
2018,08,21,15,46,30.80
2018,08,21,15,47,30.90
2018,08,21,15,48,30.90
2018,08,21,15,49,30.90
2018,08,21,15,50,31.00
2018,08,21,15,51,31.00
2018,08,21,15,52,31.00
2018,08,21,15,53,31.10
2018,08,21,15,54,31.10
2018,08,21,15,55,31.10
2018,08,21,15,56,31.10
2018,08,21,15,57,31.10
2018,08,21,15,58,31.10
2018,08,21,15,59,31.10
2018,08,21,16,00,31.00
2018,08,21,16,01,31.00
2018,08,21,16,02,30.90
2018,08,21,16,03,30.90
2018,08,21,16,04,30.80
2018,08,21,16,05,30.80
2018,08,21,16,06,30.80
2018,08,21,16,07,30.80
2018,08,21,16,08,30.80
2018,08,21,16,09,30.80
2018,08,21,16,10,30.90
2018,08,21,16,11,30.90
2018,08,21,16,12,31.00
2018,08,21,16,13,31.00
2018,08,21,16,14,31.10
2018,08,21,16,15,31.20
2018,08,21,16,16,31.20
2018,08,21,16,17,31.20
2018,08,21,16,18,31.30
2018,08,21,16,19,31.30
2018,08,21,16,20,31.30
2018,08,21,16,21,31.40
2018,08,21,16,22,31.40
2018,08,21,16,23,31.40
2018,08,21,16,24,31.50
2018,08,21,16,25,31.50
2018,08,21,16,26,31.50
2018,08,21,16,27,31.60
2018,08,21,16,28,31.60
2018,08,21,16,29,31.60
2018,08,21,16,30,31.60
2018,08,21,16,31,31.60
2018,08,21,16,32,31.60
2018,08,21,16,33,31.70
2018,08,21,16,34,31.70
2018,08,21,16,35,31.80
2018,08,21,16,36,31.80
2018,08,21,16,37,31.90
2018,08,21,16,38,31.90
2018,08,21,16,39,32.00
2018,08,21,16,40,32.00
2018,08,21,16,41,32.00
2018,08,21,16,42,32.00
2018,08,21,16,43,32.00
2018,08,21,16,44,32.10
2018,08,21,16,45,32.10
2018,08,21,16,46,32.10
2018,08,21,16,47,32.10
2018,08,21,16,48,32.10
2018,08,21,16,49,32.10
2018,08,21,16,50,32.10
2018,08,21,16,51,32.00
2018,08,21,16,52,32.00
2018,08,21,16,53,31.90
2018,08,21,16,54,31.90
2018,08,21,16,55,31.90
2018,08,21,16,56,31.80
2018,08,21,16,57,31.80
2018,08,21,16,58,31.80
2018,08,21,16,59,31.80
2018,08,21,17,00,31.80
2018,08,21,17,01,31.80
2018,08,21,17,02,31.80
2018,08,21,17,03,31.90
2018,08,21,17,04,31.90
2018,08,21,17,05,31.90
2018,08,21,17,06,31.90
2018,08,21,17,07,31.90
2018,08,21,17,08,31.90
2018,08,21,17,09,31.90
2018,08,21,17,10,31.80
2018,08,21,17,11,31.80
2018,08,21,17,12,31.80
2018,08,21,17,13,31.80
2018,08,21,17,14,31.90
2018,08,21,17,15,31.80
2018,08,21,17,16,31.80
2018,08,21,17,17,31.80
2018,08,21,17,18,31.70
2018,08,21,17,19,31.60